Home > Weather > Lakewood > Past weeks

Flag for USA Weather for the Past 2 Weeks in Lakewood, Colorado, USA

Now
36 °F

Drizzle. Mostly cloudy.


Feels Like: 29 °F
Forecast: 31 / 36 °F
Wind: 9 mph from Southeast

Location: Centennial Airport

Current Time: Apr 29, 2016 at 12:59:48 AM

Latest Report: Apr 28, 2016 at 11:53 PM


Visibility: 9 mi

Pressure: 30.06 "Hg (24.40 "Hg at 1683m altitude)

Humidity: 89%

Dew Point: 33 °F

Location of LakewoodLocation

Historic Weather in Lakewood — Graph

°F

Lakewood Temperature Yesterday

Maximum temperature yesterday: 39 °F (at 3:53 PM)
Minimum temperature yesterday: 34 °F (at 8:55 AM)
Average temperature yesterday: 36 °F

High & Low Weather Summary for the Past Weeks

 TemperatureHumidityPressure
High75 °F (Apr 23, 3:53 PM)100% (Apr 16, 1:53 AM)30.41 "Hg (Apr 16, 1:53 AM)
Low29 °F (Apr 17, 5:53 AM)17% (Apr 22, 12:53 PM)29.42 "Hg (Apr 25, 5:53 PM)
Average45 °F61%29.91 "Hg
* Reported Apr 13 10:53 PM — Apr 28 10:53 PM, Lakewood, Weather by CustomWeather, © 2016

Note: Actual official high and low records may vary slightly from our data, if they occured in-between our weather recording intervals... More about our weather records

Advertising

Lakewood Weather History for the Previous 24 Hours

Scroll right to see more
 ConditionsComfort  
Time TempWeatherWind HumidityBarometerVisibility
10:53 PM
Thu, Apr 28
37 °FDrizzle. Overcast.6 mph89%30.07 "Hg8 mi
9:53 PM37 °FMostly cloudy.8 mph89%30.07 "Hg10 mi
8:53 PM37 °FMostly cloudy.3 mph89%30.06 "Hg10 mi
7:53 PM38 °FMostly cloudy.6 mph86%30.03 "Hg10 mi
6:53 PM38 °FMostly cloudy.5 mph83%30.01 "Hg10 mi
5:53 PM39 °FMostly cloudy.6 mph79%30.00 "Hg10 mi
4:53 PM39 °FDrizzle. Mostly cloudy.3 mph76%29.98 "Hg10 mi
3:53 PM39 °FDrizzle. Overcast.7 mph76%29.97 "Hg10 mi
2:53 PM38 °FMostly cloudy.9 mph79%29.98 "Hg10 mi
1:53 PM37 °FMostly cloudy.12 mph82%29.98 "Hg10 mi
12:53 PM36 °FLight snow. Mostly cloudy.12 mph82%29.99 "Hg9 mi
11:53 AM37 °FMostly cloudy.12 mph79%29.96 "Hg10 mi
10:53 AM35 °FLight snow. Fog.10 mph88%29.98 "Hg5 mi
9:53 AM34 °FLight snow. Fog.10 mph88%29.98 "Hg1 mi
8:55 AM34 °FLight snow. Fog.12 mph82%29.96 "Hg2 mi
7:53 AM35 °FMostly cloudy.9 mph72%29.94 "Hg10 mi
6:53 AM35 °FPassing clouds.10 mph72%29.93 "Hg10 mi
5:53 AM35 °FLight snow. Passing clouds.6 mph72%29.89 "Hg9 mi
4:53 AM35 °FLight snow. Mostly cloudy.6 mph75%29.89 "Hg9 mi
3:53 AM35 °FMostly cloudy.5 mph72%29.90 "Hg10 mi
2:53 AM36 °FMostly cloudy.5 mph70%29.90 "Hg10 mi
1:53 AM36 °FLight snow. Mostly cloudy.7 mph73%29.90 "Hg9 mi
12:53 AM36 °FLight snow. Mostly cloudy.10 mph70%29.92 "Hg9 mi
Weather by CustomWeather, © 2016

See weather overviewHow to use our weather pages